Weather History for KOMK - February, 2013

Change the Weather History Date:

Wednesday, February 27, 2013

  Actual Average Record
Temperature  
Mean Temperature 37 °F 35 °F  
Max Temperature 46 °F 45 °F 63 °F (1932)
Min Temperature 28 °F 25 °F 7 °F (1962)
Degree Days  
Heating Degree Days 28 30  
Month to date heating degree days 933 898  
Since 1 July heating degree days 4614 4831  
Cooling Degree Days 0 0  
Month to date cooling degree days 0 0  
Year to date cooling degree days 0 0  
Moisture  
Dew Point 27 °F    
Average Humidity 65    
Maximum Humidity 85    
Minimum Humidity 45    
Precipitation  
Precipitation 0.00 in 0.05 in 0.51 in (1976)
Month to date precipitation 0.09 1.26  
Year to date precipitation 0.69 2.95  
Sea Level Pressure  
Sea Level Pressure 30.26 in    
Wind  
Wind Speed 3 mph (SSW)    
Max Wind Speed 9 mph    
Max Gust Speed 13 mph    
Visibility 10 miles    
Events      
T = Trace of Precipitation, MM = Missing Value Source: NWS Daily Summary

Daily Weather History Graph

Daily Weather History Graph

Search for Another Location

Airport or City:

Trip Planner

Search our weather history database for the weather conditions in past years. The results will help you decide how hot, cold, wet, or windy it might be!

Date:

Astronomy

Feb. 27, 2013 Rise Set
Actual Time 6:42 AM PST 5:39 PM PST
Civil Twilight 6:11 AM PST 6:10 PM PST
Nautical Twilight 5:35 AM PST 6:47 PM PST
Astronomical Twilight 4:58 AM PST 7:23 PM PST
Moon 8:22 PM PST (2/27) 7:07 AM PST (2/27)
Length of Visible Light 11h 59m
Length of Day
10h 56m
Waning Gibbous, 96% of the Moon is Illuminated
Feb 27
Waning Gibbous
Mar 4
Last Quarter
Mar 11
New
Mar 19
First Quarter
Mar 27
Full

Hourly Weather History & Observations

Time (PST) Temp. Windchill Dew Point Humidity Pressure Visibility Wind Dir Wind Speed Gust Speed Precip Events Conditions
12:53 AM 37.0 °F 31.6 °F 26.1 °F 65% 30.21 in 10.0 mi SSW 6.9 mph - N/A   Overcast
1:53 AM 34.0 °F 31.0 °F 25.0 °F 70% 30.20 in 10.0 mi South 3.5 mph - N/A   Clear
2:53 AM 30.0 °F 26.5 °F 24.1 °F 79% 30.22 in 10.0 mi East 3.5 mph - N/A   Clear
3:53 AM 28.0 °F - 24.1 °F 85% 30.22 in 10.0 mi Calm Calm - N/A   Scattered Clouds
4:53 AM 30.0 °F - 25.0 °F 82% 30.23 in 10.0 mi Calm Calm - N/A   Overcast
5:53 AM 30.0 °F - 25.0 °F 82% 30.25 in 10.0 mi Calm Calm - N/A   Overcast
6:53 AM 30.0 °F - 25.0 °F 82% 30.26 in 10.0 mi Calm Calm - N/A   Overcast
7:53 AM 30.9 °F 26.2 °F 26.1 °F 82% 30.27 in 10.0 mi SW 4.6 mph - N/A   Clear
8:53 AM 35.1 °F - 27.0 °F 72% 30.28 in 10.0 mi Calm Calm - N/A   Clear
9:53 AM 36.0 °F - 26.1 °F 67% 30.29 in 10.0 mi Calm Calm - N/A   Clear
10:53 AM 37.9 °F 35.5 °F 27.0 °F 65% 30.30 in 10.0 mi ESE 3.5 mph - N/A   Clear
11:53 AM 41.0 °F - 27.0 °F 57% 30.30 in 10.0 mi Calm Calm - N/A   Clear
12:53 PM 44.1 °F 41.5 °F 28.0 °F 53% 30.28 in 10.0 mi Variable 4.6 mph - N/A   Partly Cloudy
1:53 PM 44.1 °F 40.1 °F 28.0 °F 53% 30.27 in 10.0 mi South 6.9 mph - N/A   Clear
2:53 PM 46.0 °F 43.1 °F 27.0 °F 47% 30.26 in 10.0 mi South 5.8 mph - N/A   Clear
3:53 PM 46.0 °F 41.9 °F 27.0 °F 47% 30.26 in 10.0 mi South 8.1 mph - N/A   Clear
4:53 PM 43.0 °F 39.5 °F 28.0 °F 56% 30.25 in 10.0 mi South 5.8 mph - N/A   Clear
5:53 PM 39.9 °F 36.7 °F 28.0 °F 63% 30.25 in 10.0 mi SW 4.6 mph - N/A   Mostly Cloudy
6:53 PM 41.0 °F 38.0 °F 28.0 °F 60% 30.26 in 10.0 mi South 4.6 mph - N/A   Overcast
7:53 PM 41.0 °F 37.1 °F 28.9 °F 62% 30.25 in 10.0 mi South 5.8 mph - N/A   Overcast
8:53 PM 39.0 °F - 28.9 °F 67% 30.26 in 10.0 mi Calm Calm - N/A   Mostly Cloudy
9:53 PM 35.1 °F - 28.9 °F 78% 30.25 in 10.0 mi Calm Calm - N/A   Mostly Cloudy
10:53 PM 37.0 °F 32.4 °F 28.9 °F 73% 30.27 in 10.0 mi West 5.8 mph - N/A   Overcast
11:53 PM 35.1 °F 31.0 °F 30.0 °F 82% 30.27 in 10.0 mi WNW 4.6 mph - N/A   Overcast